• In Belarus
  • List of Countries
  • For 7 days
  • Water Temperature
  • Weather Map
  • Weather Widgets
  • user-avatar
    Login

    Hourly Weather Shakhtinsk

    Today, 29 January, Wednesday

    Time Temperature Precipitation Wind Pressure Humidity
    00:00 -25°C° 0 mm 5 mps 723 mmHg 97%
    01:00 -26°C° 0 mm 4 mps 724 mmHg 98%
    02:00 -29°C° 0 mm 4 mps 725 mmHg 99%
    03:00 -29°C° 0 mm 4 mps 726 mmHg 99%
    04:00 -29°C° 0 mm 3 mps 726 mmHg 99%
    05:00 -30°C° 0 mm 3 mps 727 mmHg 99%
    06:00 -30°C° 0 mm 3 mps 728 mmHg 99%
    07:00 -30°C° 0 mm 3 mps 728 mmHg 99%
    08:00 -30°C° 0 mm 3 mps 729 mmHg 99%
    09:00 -29°C° 0 mm 3 mps 729 mmHg 97%
    10:00 -25°C° 0 mm 2 mps 730 mmHg 96%
    11:00 -24°C° 0 mm 2 mps 731 mmHg 95%
    12:00 -23°C° 0 mm 2 mps 731 mmHg 93%
    13:00 -19°C° 0 mm 1 mps 731 mmHg 92%
    14:00 -18°C° 0 mm 1 mps 731 mmHg 90%
    15:00 -20°C° 0 mm 1 mps 731 mmHg 92%
    16:00 -21°C° 0 mm 1 mps 731 mmHg 94%
    17:00 -23°C° 0 mm 1 mps 731 mmHg 96%
    18:00 -23°C° 0 mm 1 mps 731 mmHg 94%
    19:00 -23°C° 0 mm 1 mps 731 mmHg 92%
    20:00 -23°C° 0 mm 1 mps 731 mmHg 90%
    21:00 -23°C° 0 mm 1 mps 731 mmHg 87%
    22:00 -23°C° 0 mm 1 mps 731 mmHg 85%
    23:00 -22°C° 0 mm 1 mps 731 mmHg 82%

    Tomorrow, 30 January, Thursday

    Time Temperature Precipitation Wind Pressure Humidity
    00:00 -22°C° 0 mm 1 mps 731 mmHg 80%
    01:00 -22°C° 0 mm 1 mps 731 mmHg 78%
    02:00 -22°C° 0 mm 1 mps 731 mmHg 75%
    03:00 -21°C° 0 mm 1 mps 730 mmHg 73%
    04:00 -20°C° 0 mm 1 mps 730 mmHg 72%
    05:00 -20°C° 0 mm 1 mps 730 mmHg 70%
    06:00 -19°C° 0 mm 1 mps 730 mmHg 68%
    07:00 -19°C° 0 mm 1 mps 730 mmHg 67%
    08:00 -18°C° 0 mm 1 mps 730 mmHg 66%
    09:00 -17°C° 0 mm 1 mps 730 mmHg 66%
    10:00 -16°C° 0 mm 1 mps 730 mmHg 66%
    11:00 -15°C° 0 mm 1 mps 730 mmHg 65%
    12:00 -14°C° 0 mm 1 mps 730 mmHg 67%
    13:00 -13°C° 0 mm 1 mps 730 mmHg 68%
    14:00 -13°C° 0 mm 1 mps 729 mmHg 69%
    15:00 -14°C° 0 mm 1 mps 729 mmHg 67%
    16:00 -15°C° 0 mm 1 mps 729 mmHg 65%
    17:00 -17°C° 0 mm 1 mps 728 mmHg 63%
    18:00 -17°C° 0 mm 1 mps 729 mmHg 62%
    19:00 -18°C° 0 mm 1 mps 729 mmHg 61%
    20:00 -18°C° 0 mm 1 mps 729 mmHg 59%
    21:00 -18°C° 0 mm 1 mps 728 mmHg 58%
    22:00 -20°C° 0 mm 2 mps 728 mmHg 56%
    23:00 -21°C° 0 mm 2 mps 728 mmHg 55%

    Day after tomorrow, 31 January, Friday

    Time Temperature Precipitation Wind Pressure Humidity
    00:00 -18°C° 0 mm 1 mps 728 mmHg 54%
    01:00 -18°C° 0 mm 1 mps 728 mmHg 53%
    02:00 -18°C° 0 mm 1 mps 727 mmHg 51%
    03:00 -18°C° 0 mm 1 mps 727 mmHg 51%
    04:00 -18°C° 0 mm 1 mps 727 mmHg 51%
    05:00 -17°C° 0 mm 1 mps 727 mmHg 51%
    06:00 -17°C° 0 mm 1 mps 727 mmHg 53%
    07:00 -16°C° 0 mm 1 mps 727 mmHg 55%
    08:00 -15°C° 0 mm 1 mps 727 mmHg 57%
    09:00 -14°C° 0 mm 1 mps 727 mmHg 58%
    10:00 -13°C° 0 mm 1 mps 727 mmHg 59%
    11:00 -11°C° 0 mm 1 mps 727 mmHg 60%
    12:00 -10°C° 0 mm 1 mps 727 mmHg 62%
    13:00 -10°C° 0 mm 1 mps 727 mmHg 65%
    14:00 -9°C° 0 mm 1 mps 726 mmHg 67%
    15:00 -10°C° 0 mm 1 mps 726 mmHg 65%
    16:00 -12°C° 0 mm 1 mps 726 mmHg 63%
    17:00 -13°C° 0 mm 1 mps 726 mmHg 60%
    18:00 -15°C° 0 mm 2 mps 726 mmHg 58%
    19:00 -16°C° 0 mm 2 mps 726 mmHg 56%
    20:00 -16°C° 0 mm 2 mps 726 mmHg 53%
    21:00 -16°C° 0 mm 2 mps 726 mmHg 53%
    22:00 -16°C° 0 mm 2 mps 725 mmHg 54%
    23:00 -16°C° 0 mm 2 mps 725 mmHg 54%

    1 February, Saturday

    Time Temperature Precipitation Wind Pressure Humidity
    00:00 -15°C° 0 mm 2 mps 725 mmHg 54%
    01:00 -15°C° 0 mm 2 mps 725 mmHg 55%
    02:00 -15°C° 0 mm 2 mps 725 mmHg 55%
    03:00 -15°C° 0 mm 2 mps 725 mmHg 53%
    04:00 -15°C° 0 mm 2 mps 725 mmHg 51%
    05:00 -15°C° 0 mm 2 mps 724 mmHg 49%
    06:00 -15°C° 0 mm 2 mps 724 mmHg 50%
    07:00 -15°C° 0 mm 2 mps 724 mmHg 51%
    08:00 -15°C° 0 mm 2 mps 724 mmHg 52%
    09:00 -13°C° 0 mm 2 mps 724 mmHg 57%
    10:00 -12°C° 0 mm 2 mps 724 mmHg 62%
    11:00 -9°C° 0 mm 2 mps 724 mmHg 66%
    12:00 -8°C° 0 mm 2 mps 724 mmHg 68%
    13:00 -7°C° 0 mm 2 mps 723 mmHg 70%
    14:00 -6°C° 0 mm 2 mps 723 mmHg 72%
    15:00 -8°C° 0 mm 3 mps 723 mmHg 71%
    16:00 -9°C° 0 mm 3 mps 723 mmHg 69%
    17:00 -9°C° 0 mm 3 mps 722 mmHg 68%
    18:00 -9°C° 0 mm 3 mps 722 mmHg 69%
    19:00 -9°C° 0 mm 3 mps 722 mmHg 69%
    20:00 -9°C° 0 mm 3 mps 722 mmHg 70%
    21:00 -9°C° 0 mm 3 mps 722 mmHg 69%
    22:00 -10°C° 0 mm 3 mps 722 mmHg 69%
    23:00 -10°C° 0 mm 3 mps 721 mmHg 68%

    2 February, Sunday

    Time Temperature Precipitation Wind Pressure Humidity
    00:00 -10°C° 0 mm 3 mps 721 mmHg 68%
    01:00 -9°C° 0 mm 2 mps 721 mmHg 68%
    02:00 -9°C° 0 mm 2 mps 721 mmHg 68%
    03:00 -10°C° 0 mm 2 mps 720 mmHg 69%
    04:00 -12°C° 0 mm 2 mps 720 mmHg 69%
    05:00 -12°C° 0 mm 2 mps 720 mmHg 69%
    06:00 -13°C° 0 mm 2 mps 720 mmHg 69%
    07:00 -13°C° 0 mm 2 mps 720 mmHg 70%
    08:00 -14°C° 0 mm 3 mps 720 mmHg 71%
    09:00 -13°C° 0 mm 3 mps 720 mmHg 73%
    10:00 -12°C° 0 mm 3 mps 720 mmHg 74%
    11:00 -9°C° 0 mm 3 mps 720 mmHg 76%
    12:00 -9°C° 0 mm 3 mps 720 mmHg 77%
    13:00 -7°C° 0 mm 2 mps 719 mmHg 78%
    14:00 -6°C° 0 mm 2 mps 719 mmHg 79%
    15:00 -6°C° 0 mm 2 mps 719 mmHg 78%
    16:00 -7°C° 0 mm 3 mps 719 mmHg 78%
    17:00 -8°C° 0 mm 3 mps 719 mmHg 77%
    18:00 -7°C° 0 mm 3 mps 719 mmHg 78%
    19:00 -5°C° 0 mm 2 mps 719 mmHg 79%
    20:00 -4°C° 0 mm 2 mps 719 mmHg 79%
    21:00 -4°C° 0 mm 2 mps 719 mmHg 80%
    22:00 -4°C° 0 mm 2 mps 719 mmHg 80%
    23:00 -5°C° 0 mm 3 mps 718 mmHg 81%

    3 February, Monday

    Time Temperature Precipitation Wind Pressure Humidity
    00:00 -5°C° 0 mm 3 mps 718 mmHg 80%
    01:00 -6°C° 0 mm 3 mps 718 mmHg 80%
    02:00 -5°C° 0 mm 2 mps 717 mmHg 80%
    03:00 -7°C° 0 mm 3 mps 717 mmHg 79%
    04:00 -7°C° 0 mm 3 mps 717 mmHg 79%
    05:00 -8°C° 0 mm 3 mps 717 mmHg 79%
    06:00 -9°C° 0 mm 3 mps 717 mmHg 79%
    07:00 -10°C° 0 mm 3 mps 717 mmHg 78%
    08:00 -13°C° 0 mm 3 mps 717 mmHg 78%
    09:00 -10°C° 0 mm 3 mps 717 mmHg 80%
    10:00 -9°C° 0 mm 3 mps 717 mmHg 81%
    11:00 -8°C° 0 mm 3 mps 717 mmHg 83%
    12:00 -8°C° 0 mm 4 mps 717 mmHg 85%
    13:00 -7°C° 0 mm 4 mps 717 mmHg 87%
    14:00 -7°C° 0 mm 5 mps 717 mmHg 89%
    15:00 -5°C° 0 mm 4 mps 717 mmHg 91%
    16:00 -5°C° 0 mm 4 mps 717 mmHg 93%
    17:00 -4°C° 0 mm 4 mps 718 mmHg 95%
    18:00 -4°C° 0 mm 4 mps 718 mmHg 94%
    19:00 -4°C° 0 mm 5 mps 718 mmHg 94%
    20:00 -4°C° 0 mm 5 mps 718 mmHg 93%
    21:00 -4°C° 0 mm 5 mps 718 mmHg 94%
    22:00 -4°C° 0 mm 4 mps 718 mmHg 94%
    23:00 -4°C° 0 mm 4 mps 718 mmHg 95%
    Show more